When you browse on this site, cookies collect data to enhance your experience and personalize the content and advertising you see.
Visit our Privacy Policy to learn more. By continuing to use the site, you agree to this use of cookies and data.
  • In Hungary
  • List of Countries
  • For 7 days
  • Water Temperature
  • Satellite Maps
  • Weather Map
  • News
  • Weather Widgets
  • user-avatar
    Login

    Hourly Weather Chik Ballapur

    Today, 20 January, Sunday

    Time Temperature Precipitation Wind Pressure Humidity
    00:00 +17°C° 0 mm 2 mps 684 mmHg 67%
    01:00 +17°C° 0 mm 2 mps 683 mmHg 72%
    02:00 +16°C° 0 mm 2 mps 683 mmHg 77%
    03:00 +16°C° 0 mm 2 mps 683 mmHg 78%
    04:00 +15°C° 0 mm 2 mps 683 mmHg 79%
    05:00 +15°C° 0 mm 2 mps 683 mmHg 79%
    06:00 +17°C° 0 mm 2 mps 683 mmHg 71%
    07:00 +18°C° 0 mm 2 mps 684 mmHg 62%
    08:00 +19°C° 0 mm 2 mps 685 mmHg 53%
    09:00 +22°C° 0 mm 3 mps 685 mmHg 43%
    10:00 +25°C° 0 mm 3 mps 686 mmHg 33%
    11:00 +27°C° 0 mm 4 mps 686 mmHg 23%
    12:00 +28°C° 0 mm 4 mps 686 mmHg 22%
    13:00 +29°C° 0 mm 4 mps 685 mmHg 20%
    14:00 +29°C° 0 mm 4 mps 684 mmHg 18%
    15:00 +29°C° 0 mm 4 mps 684 mmHg 20%
    16:00 +28°C° 0 mm 3 mps 684 mmHg 23%
    17:00 +27°C° 0 mm 3 mps 683 mmHg 28%
    18:00 +25°C° 0 mm 3 mps 684 mmHg 33%
    19:00 +24°C° 0 mm 3 mps 684 mmHg 38%
    20:00 +21°C° 0 mm 3 mps 684 mmHg 44%
    21:00 +20°C° 0 mm 3 mps 684 mmHg 51%
    22:00 +19°C° 0 mm 3 mps 684 mmHg 59%
    23:00 +18°C° 0 mm 3 mps 684 mmHg 66%

    Tomorrow, 21 January, Monday

    Time Temperature Precipitation Wind Pressure Humidity
    00:00 +18°C° 0 mm 3 mps 683 mmHg 71%
    01:00 +17°C° 0 mm 2 mps 683 mmHg 76%
    02:00 +17°C° 0 mm 2 mps 682 mmHg 82%
    03:00 +16°C° 0 mm 2 mps 682 mmHg 83%
    04:00 +16°C° 0 mm 2 mps 682 mmHg 84%
    05:00 +15°C° 0 mm 2 mps 682 mmHg 84%
    06:00 +16°C° 0 mm 2 mps 683 mmHg 75%
    07:00 +17°C° 0 mm 2 mps 683 mmHg 66%
    08:00 +19°C° 0 mm 2 mps 684 mmHg 57%
    09:00 +21°C° 0 mm 2 mps 684 mmHg 44%
    10:00 +25°C° 0 mm 3 mps 685 mmHg 31%
    11:00 +27°C° 0 mm 3 mps 685 mmHg 18%
    12:00 +28°C° 0 mm 3 mps 685 mmHg 17%
    13:00 +29°C° 0 mm 4 mps 684 mmHg 15%
    14:00 +30°C° 0 mm 4 mps 684 mmHg 14%
    15:00 +29°C° 0 mm 4 mps 683 mmHg 17%
    16:00 +28°C° 0 mm 3 mps 683 mmHg 19%
    17:00 +28°C° 0 mm 3 mps 683 mmHg 22%
    18:00 +26°C° 0 mm 4 mps 683 mmHg 28%
    19:00 +23°C° 0 mm 4 mps 683 mmHg 35%
    20:00 +21°C° 0 mm 4 mps 683 mmHg 41%
    21:00 +20°C° 0 mm 4 mps 683 mmHg 48%
    22:00 +19°C° 0 mm 4 mps 683 mmHg 55%
    23:00 +19°C° 0 mm 5 mps 683 mmHg 62%

    Day after tomorrow, 22 January, Tuesday

    Time Temperature Precipitation Wind Pressure Humidity
    00:00 +18°C° 0 mm 4 mps 683 mmHg 67%
    01:00 +17°C° 0 mm 3 mps 682 mmHg 72%
    02:00 +16°C° 0 mm 3 mps 682 mmHg 78%
    03:00 +16°C° 0 mm 3 mps 682 mmHg 79%
    04:00 +15°C° 0 mm 2 mps 682 mmHg 81%
    05:00 +15°C° 0 mm 2 mps 681 mmHg 83%
    06:00 +16°C° 0 mm 2 mps 682 mmHg 75%
    07:00 +17°C° 0 mm 2 mps 683 mmHg 67%
    08:00 +18°C° 0 mm 2 mps 684 mmHg 59%
    09:00 +21°C° 0 mm 2 mps 684 mmHg 46%
    10:00 +24°C° 0 mm 2 mps 684 mmHg 33%
    11:00 +27°C° 0 mm 3 mps 685 mmHg 20%
    12:00 +28°C° 0 mm 3 mps 684 mmHg 18%
    13:00 +28°C° 0 mm 3 mps 684 mmHg 15%
    14:00 +29°C° 0 mm 2 mps 683 mmHg 13%
    15:00 +29°C° 0 mm 2 mps 683 mmHg 15%
    16:00 +28°C° 0 mm 2 mps 683 mmHg 16%
    17:00 +28°C° 0 mm 2 mps 682 mmHg 18%
    18:00 +26°C° 0 mm 2 mps 683 mmHg 23%
    19:00 +24°C° 0 mm 3 mps 683 mmHg 29%
    20:00 +21°C° 0 mm 3 mps 683 mmHg 35%
    21:00 +20°C° 0 mm 4 mps 683 mmHg 44%
    22:00 +20°C° 0 mm 4 mps 683 mmHg 53%
    23:00 +19°C° 0 mm 5 mps 683 mmHg 62%

    23 January, Wednesday

    Time Temperature Precipitation Wind Pressure Humidity
    00:00 +18°C° 0 mm 4 mps 683 mmHg 70%
    01:00 +17°C° 0 mm 3 mps 682 mmHg 78%
    02:00 +16°C° 0 mm 2 mps 682 mmHg 87%
    03:00 +16°C° 0 mm 2 mps 682 mmHg 88%
    04:00 +16°C° 0 mm 2 mps 682 mmHg 90%
    05:00 +15°C° 0 mm 2 mps 682 mmHg 92%
    06:00 +17°C° 0 mm 2 mps 682 mmHg 84%
    07:00 +18°C° 0 mm 2 mps 683 mmHg 77%
    08:00 +19°C° 0 mm 2 mps 684 mmHg 69%
    09:00 +21°C° 0 mm 2 mps 684 mmHg 58%
    10:00 +24°C° 0 mm 1 mps 684 mmHg 46%
    11:00 +27°C° 0 mm 1 mps 685 mmHg 34%
    12:00 +28°C° 0 mm 1 mps 684 mmHg 31%
    13:00 +29°C° 0 mm 1 mps 683 mmHg 28%
    14:00 +30°C° 0 mm 1 mps 682 mmHg 25%
    15:00 +29°C° 0 mm 1 mps 682 mmHg 25%
    16:00 +29°C° 0 mm 1 mps 682 mmHg 25%
    17:00 +29°C° 0 mm 1 mps 682 mmHg 25%
    18:00 +27°C° 0 mm 2 mps 682 mmHg 29%
    19:00 +26°C° 0 mm 2 mps 683 mmHg 32%
    20:00 +24°C° 0 mm 3 mps 683 mmHg 36%
    21:00 +22°C° 0 mm 3 mps 683 mmHg 40%
    22:00 +21°C° 0 mm 3 mps 683 mmHg 45%
    23:00 +20°C° 0 mm 3 mps 683 mmHg 49%

    24 January, Thursday

    Time Temperature Precipitation Wind Pressure Humidity
    00:00 +19°C° 0 mm 3 mps 683 mmHg 60%
    01:00 +19°C° 0 mm 3 mps 682 mmHg 71%
    02:00 +18°C° 0 mm 3 mps 682 mmHg 82%
    03:00 +17°C° 0 mm 3 mps 682 mmHg 85%
    04:00 +17°C° 0 mm 3 mps 682 mmHg 87%
    05:00 +17°C° 0 mm 2 mps 682 mmHg 89%
    06:00 +18°C° 0 mm 2 mps 683 mmHg 83%
    07:00 +19°C° 0 mm 2 mps 684 mmHg 77%
    08:00 +20°C° 0 mm 3 mps 684 mmHg 71%
    09:00 +23°C° 0 mm 2 mps 685 mmHg 60%
    10:00 +25°C° 0 mm 2 mps 685 mmHg 49%
    11:00 +27°C° 0 mm 2 mps 685 mmHg 38%
    12:00 +28°C° 0 mm 2 mps 684 mmHg 35%
    13:00 +29°C° 0 mm 2 mps 683 mmHg 32%
    14:00 +30°C° 0 mm 2 mps 682 mmHg 29%
    15:00 +29°C° 0 mm 2 mps 682 mmHg 29%
    16:00 +29°C° 0 mm 2 mps 682 mmHg 29%
    17:00 +29°C° 0 mm 2 mps 682 mmHg 29%
    18:00 +28°C° 0 mm 3 mps 683 mmHg 32%
    19:00 +27°C° 0 mm 3 mps 683 mmHg 35%
    20:00 +25°C° 0 mm 4 mps 683 mmHg 37%
    21:00 +23°C° 0 mm 5 mps 683 mmHg 47%
    22:00 +22°C° 0 mm 5 mps 683 mmHg 57%
    23:00 +20°C° 0 mm 5 mps 683 mmHg 67%

    25 January, Friday

    Time Temperature Precipitation Wind Pressure Humidity
    00:00 +20°C° 0 mm 5 mps 682 mmHg 72%
    01:00 +19°C° 0 mm 5 mps 682 mmHg 76%
    02:00 +19°C° 0 mm 4 mps 681 mmHg 81%
    03:00 +18°C° 0 mm 4 mps 681 mmHg 83%
    04:00 +18°C° 0 mm 3 mps 681 mmHg 85%
    05:00 +17°C° 0 mm 3 mps 681 mmHg 88%
    06:00 +18°C° 0 mm 3 mps 682 mmHg 82%
    07:00 +19°C° 0 mm 3 mps 683 mmHg 76%
    08:00 +20°C° 0 mm 4 mps 684 mmHg 70%
    09:00 +22°C° 0 mm 3 mps 684 mmHg 60%
    10:00 +25°C° 0 mm 3 mps 684 mmHg 51%
    11:00 +27°C° 0 mm 3 mps 684 mmHg 41%
    12:00 +28°C° 0 mm 3 mps 683 mmHg 37%
    13:00 +29°C° 0 mm 3 mps 683 mmHg 34%
    14:00 +30°C° 0 mm 3 mps 682 mmHg 31%
    15:00 +30°C° 0 mm 3 mps 682 mmHg 30%
    16:00 +29°C° 0 mm 3 mps 681 mmHg 30%
    17:00 +29°C° 0 mm 3 mps 681 mmHg 30%
    18:00 +28°C° 0 mm 4 mps 682 mmHg 34%
    19:00 +27°C° 0 mm 4 mps 682 mmHg 38%
    20:00 +25°C° 0 mm 5 mps 682 mmHg 42%
    21:00 +23°C° 0 mm 6 mps 682 mmHg 55%
    22:00 +22°C° 0 mm 6 mps 682 mmHg 68%
    23:00 +20°C° 0 mm 7 mps 682 mmHg 81%
    Show more